TimeEST,TemperatureF,Dew PointF,Humidity,Sea Level PressureIn,VisibilityMPH,Wind Direction,Wind SpeedMPH,Gust SpeedMPH,PrecipitationIn,Events,Conditions,WindDirDegrees,DateUTC
12:56 AM,48.0,46.0,93,30.04,10.0,North,8.1,-,N/A,,Overcast,350,2012-11-21 05:56:00
1:56 AM,48.0,46.0,93,30.03,10.0,North,10.4,-,N/A,,Overcast,360,2012-11-21 06:56:00
2:56 AM,48.0,46.0,93,30.02,10.0,North,9.2,-,N/A,,Overcast,360,2012-11-21 07:56:00
3:56 AM,46.9,46.0,97,30.02,10.0,North,6.9,-,N/A,,Mostly Cloudy,360,2012-11-21 08:56:00
4:48 AM,46.4,46.4,100,30.03,10.0,North,6.9,-,N/A,,Mostly Cloudy,360,2012-11-21 09:48:00
4:56 AM,46.9,46.0,97,30.03,10.0,North,10.4,-,N/A,,Overcast,350,2012-11-21 09:56:00
5:56 AM,48.0,46.0,93,30.04,10.0,North,10.4,-,N/A,,Overcast,360,2012-11-21 10:56:00
6:42 AM,46.4,46.4,100,30.05,10.0,North,9.2,-,N/A,,Overcast,360,2012-11-21 11:42:00
6:56 AM,48.0,46.0,93,30.06,10.0,North,10.4,-,N/A,,Overcast,10,2012-11-21 11:56:00
7:53 AM,48.2,46.4,93,30.06,8.0,North,15.0,-,N/A,,Overcast,10,2012-11-21 12:53:00
7:56 AM,48.9,46.9,93,30.06,8.0,North,12.7,-,N/A,,Overcast,10,2012-11-21 12:56:00
8:56 AM,50.0,48.9,96,30.07,9.0,North,12.7,-,N/A,,Overcast,10,2012-11-21 13:56:00
9:34 AM,51.8,48.2,88,30.07,10.0,NNE,15.0,21.9,N/A,,Overcast,20,2012-11-21 14:34:00
9:56 AM,52.0,48.9,89,30.07,10.0,North,15.0,24.2,N/A,,Overcast,10,2012-11-21 14:56:00
10:56 AM,53.1,48.9,86,30.06,10.0,NNE,16.1,26.5,N/A,,Overcast,20,2012-11-21 15:56:00
11:56 AM,54.0,48.0,80,30.06,10.0,North,16.1,-,N/A,,Overcast,350,2012-11-21 16:56:00
12:19 PM,53.6,48.2,82,30.05,10.0,NNE,17.3,23.0,N/A,,Scattered Clouds,30,2012-11-21 17:19:00
12:56 PM,55.9,48.0,75,30.05,10.0,NNE,15.0,20.7,N/A,,Partly Cloudy,30,2012-11-21 17:56:00
1:56 PM,57.0,48.0,72,30.04,10.0,North,17.3,25.3,N/A,,Clear,10,2012-11-21 18:56:00
3:56 PM,55.9,46.9,72,30.04,10.0,North,11.5,26.5,N/A,,Clear,10,2012-11-21 20:56:00
4:56 PM,53.1,46.0,77,30.06,10.0,North,11.5,-,N/A,,Clear,10,2012-11-21 21:56:00
5:56 PM,51.1,45.0,80,30.08,10.0,North,10.4,-,N/A,,Clear,10,2012-11-21 22:56:00
6:56 PM,48.9,46.0,90,30.09,10.0,NNE,10.4,-,N/A,,Clear,20,2012-11-21 23:56:00
7:56 PM,50.0,45.0,83,30.10,10.0,NNE,12.7,20.7,N/A,,Clear,20,2012-11-22 00:56:00
8:56 PM,48.9,44.1,83,30.10,10.0,North,12.7,20.7,N/A,,Clear,10,2012-11-22 01:56:00
9:56 PM,48.0,45.0,89,30.10,10.0,North,10.4,-,N/A,,Clear,350,2012-11-22 02:56:00
10:56 PM,48.0,43.0,83,30.09,10.0,North,12.7,-,N/A,,Clear,360,2012-11-22 03:56:00
11:56 PM,46.9,41.0,80,30.10,10.0,North,9.2,19.6,N/A,,Clear,360,2012-11-22 04:56:00